Presure
131 116 147 152 144 154 135 170 139 134 141 135 142 154 113 100 99 119 144 121 161 146 146 129 136 123 138 130 123 147 103 127 117 136 158 157 110 204 175 116 120 106 114
143 155 174 124 137 136 149 160 150 146 147 142 167 108 149 121 97 107 100 122 136 134 123 128 116 138 120 113 112 115 131 160 173 156 159 126 158 125 158 184 153 126 145
142 104 137 167 169 162 153 167 145 134 154 144 141 137 138 130 131 146 102 104 100 103 100 105 109 109 129 113 124 148 162 162 125 162 113 120 134 165 162 148 156 166 156
135 101 170 121 152 145 167 110 156 153 139 154 162 141 132 142 129 129 137 91 97 138 96 98 149 144 131 155 109 158 152 149 149 139 147 160 158 111 203 161 156 183 144
112 116 119 121 94 147 163 183 105 110 165 146 158 143 144 145 149 147 136 156 139 121 96 125 98 105 121 102 101 104 120 113 151 156 146 163 167 162 159 151 193 161 171
126 91 118 160 95 164 124 182 152 189 153 170 158 132 163 148 149 120 130 118 127 148 130 161 120 123 138 98 143 163 105 103 110 109 168 165 145 107 122 129 122 150 167
170 143 106 142 144 180 146 152 102 145 124 168 134 151 151 161 149 149 141 153 123 156 155 151 145 159 173 156 167 103 152 112 151 150 116 155 165 142 137 219 167 156 104
115 145 133 139 159 154 172 154 89 101 95 93 139 104 132 141 165 144 158 160 141 155 129 156 152 115 104 153 157 140 131 158 141 158 156 172 159 110 102 159 120 142 166
172 133 172 129 142 90 166 151 94 150 123 150 211 91 138 96 158 127 155 145 154 111 150 131 150 145 164 153 159 162 133 125 133 159 145 98 178 156 106 166 188 151 197
137 138 133 149 142 128 108 140 156 89 165 158 158 162 149 97 145 131 130 97 112 97 97 97 105 180 145 152 104 112 104 105 158 102 164 102 163 150 154 162 153 101 157
147 159 138 183 136 147 159 136 139 161 148 89 131 161 192 156 152 149 89 155 150 93 115 151 140 99 103 93 110 96 95 96 98 103 106 147 173 101 161 159 166 158 104
154 172 168 171 146 141 133 94 188 161 107 153 179 147 146 147 107 132 89 154 89 137 111 204 145 167 132 100 157 120 158 176 142 154 158 156 154 150 158 206 202 152 204
132 170 152 171 162 170 159 153 175 136 182 94 147 125 121 105 143 155 167 177 80 78 80 83 87 82 115 89 153 106 152 164 157 175 119 173 186 141 157 134 111 144 98
161 164 134 163 168 139 165 179 178 197 144 144 143 184 159 154 178 102 93 89 90 88 154 160 98 146 146 136 79 112 78 95 159 162 105 96 170 83 185 147 98 155 215
178 121 178 181 182 178 180 175 152 181 151 140 134 139 132 138 150 154 160 156 177 158 143 125 153 189 136 180 165 149 154 143 183 91 108 148 94 88 88 182 177 197 98
173 172 158 122 123 170 167 164 171 180 171 156 159 189 151 173 170 133 138 165 151 149 161 142 176 171 157 163 181 153 133 177 154 169 136 166 164 192 204 176 145 144 157
175 170 157 169 125 126 147 149 162 172 182 144 133 176 181 148 171 144 166 158 153 133 150 162 146 136 178 148 145 134 141 177 211 140 164 162 150 161 209 167 213 130 195
180 170 167 169 209 209 181 120 127 135 186 190 189 190 189 192 191 139 142 144 186 146 183 134 131 184 166 194 156 145 149 149 149 142 211 198 184 154 135 222 212 150 148
234 232 186 173 163 171 196 169 196 134 126 126 170 169 208 191 192 155 154 135 145 190 124 183 172 138 135 139 199 180 147 149 181 134 156 178 144 140 211 184 155 189 146
254 241 229 216 183 171 169 172 171 173 181 180 182 156 153 154 132 213 190 209 201 187 191 151 158 139 168 165 134 206 195 219 198 172 193 211 197 183 213 193 160 194 204
282 280 257 259 231 230 215 197 186 175 178 182 183 183 181 177 185 170 170 125 139 141 185 203 128 206 197 165 153 152 191 185 202 177 180 220 203 189 180 207 205 204 203
281 278 283 289 241 302 242 229 209 197 192 187 187 189 190 191 189 185 181 200 200 191 184 204 185 186 207 194 203 200 194 194 220 223 202 211 197 209 203 202 220 205 204
291 274 278 273 278 284 263 268 226 243 212 207 209 194 194 198 195 198 204 191 199 195 205 206 209 198 197 150 205 208 201 212 208 212 222 214 213 214 211 212 213 199 154
297 254 255 253 260 274 277 279 278 297 234 248 228 218 214 211 201 201 200 202 198 199 198 206 219 223 214 216 214 216 223 217 222 222 224 214 214 213 211 206 203 211 203
304 317 305 241 256 262 267 265 263 265 271 272 288 324 300 249 229 219 214 217 172 202 205 207 207 207 208 206 206 213 213 213 210 211 215 214 211 219 193 217 206 238 242
307 313 306 307 308 308 248 251 249 250 261 259 256 273 271 305 312 318 316 282 275 305 241 230 219 218 218 219 223 220 218 226 226 222 224 225 228 233 218 238 300 305 255
Wind_Speed
66 57 61 62 60 56 53 54 50 49 55 53 50 44 37 32 29 35 43 34 36 41 41 36 36 32 33 31 32 40 32 29 30 31 39 37 33 45 43 34 35 32 33
71 67 74 59 64 62 60 58 60 61 59 52 54 41 46 47 32 36 31 40 40 37 37 37 34 39 34 33 33 32 36 47 44 44 42 33 44 35 36 42 37 39 37
75 54 70 67 68 65 64 62 64 63 63 61 58 57 58 55 54 55 37 37 33 34 32 33 36 34 39 36 38 43 53 52 34 50 35 35 35 40 44 37 31 46 33
75 55 85 63 72 70 64 55 69 70 67 64 60 61 61 62 56 55 51 35 37 50 35 35 50 47 42 50 39 52 43 42 43 44 42 52 48 40 50 53 41 53 41
67 68 66 67 53 77 69 70 51 51 70 69 66 64 59 62 64 64 60 58 52 49 40 47 42 44 44 41 40 40 42 40 50 53 45 59 61 55 50 42 52 48 55
79 59 70 89 58 79 67 84 77 79 73 72 72 65 63 68 68 52 54 47 50 62 50 58 44 51 52 44 55 61 44 43 43 44 58 64 51 43 45 47 46 44 52
103 91 69 87 85 98 84 81 58 78 65 79 71 69 71 68 71 73 69 67 55 68 66 65 61 63 59 63 66 48 57 48 52 52 52 55 69 59 47 60 64 48 45
77 94 86 90 94 91 96 88 55 61 57 54 74 55 70 73 71 73 74 72 64 70 58 67 67 57 52 66 68 55 56 66 56 57 61 64 59 52 52 61 49 56 64
119 87 112 86 94 60 93 87 65 88 66 83 87 59 76 57 76 67 76 73 63 57 71 65 66 69 74 73 72 66 58 53 63 62 64 57 61 59 55 70 69 51 62
98 98 91 99 96 83 72 88 88 55 92 90 89 90 85 63 81 73 74 59 63 55 58 58 60 69 68 77 59 61 58 58 63 60 83 59 79 51 71 69 57 57 60
111 109 99 132 93 103 103 89 91 101 92 61 78 93 90 93 89 84 54 87 79 58 65 79 69 62 64 57 64 59 59 59 61 64 65 62 88 63 75 73 81 67 63
119 138 124 122 107 98 84 61 126 98 76 96 95 94 85 77 68 76 61 74 59 77 66 88 75 83 77 66 83 72 78 88 65 70 79 75 73 68 75 83 79 63 65
104 133 111 136 120 130 115 109 113 87 111 69 94 80 82 75 87 96 96 94 55 54 56 59 63 54 72 61 84 65 84 88 86 91 70 75 90 62 78 60 55 67 57
130 120 107 117 135 100 127 139 132 140 101 97 91 104 106 100 100 77 73 72 73 74 93 95 78 87 84 75 53 65 50 68 79 96 63 68 77 52 83 70 64 64 78
155 91 152 155 151 144 148 139 108 135 100 97 89 90 86 87 99 98 101 102 105 99 83 78 95 99 79 94 100 87 91 80 98 64 62 79 64 67 63 97 80 86 67
146 144 134 95 95 131 123 118 125 139 124 107 111 133 108 115 108 88 89 102 100 97 111 87 107 107 99 104 103 93 79 104 86 104 77 93 88 92 101 91 72 73 86
152 143 124 139 97 99 111 109 118 130 143 108 92 131 130 103 117 101 113 106 97 86 101 111 92 89 108 90 89 81 84 105 116 83 95 92 89 104 105 83 96 81 88
155 150 148 145 155 161 153 97 100 99 153 157 149 148 144 148 143 95 97 98 120 102 106 90 88 114 123 122 100 89 93 91 92 84 116 108 94 91 84 105 99 82 81
154 157 159 153 143 146 157 135 154 108 99 97 125 120 159 141 146 116 114 96 103 126 90 120 109 91 88 87 125 113 98 90 114 86 108 99 88 89 111 94 94 90 88
144 150 156 160 155 151 151 154 142 142 146 142 143 120 109 109 95 155 134 155 148 127 126 111 103 94 110 108 88 128 118 130 118 107 109 124 108 105 110 103 91 100 101
128 133 145 148 155 158 163 161 158 154 149 149 147 145 141 132 138 124 126 94 101 103 131 143 97 142 134 106 102 95 121 107 124 109 112 125 117 107 101 112 111 109 106
125 128 130 131 149 130 155 158 161 161 161 163 161 156 154 152 148 142 131 153 150 134 122 151 124 125 148 131 137 127 122 123 138 134 125 126 118 121 117 115 124 112 113
116 126 128 130 132 132 141 144 153 157 157 160 163 163 164 164 155 157 157 142 153 145 153 152 153 143 137 108 144 145 135 137 132 134 133 131 130 128 126 125 124 104 98
107 124 125 125 128 131 131 132 134 128 152 154 158 159 160 161 165 163 163 161 156 152 148 152 148 152 152 152 148 146 145 145 147 142 141 133 133 131 126 122 118 129 118
101 96 101 122 127 129 130 130 131 133 135 136 131 121 131 157 160 160 157 159 117 156 155 156 155 153 152 150 148 151 149 145 141 140 141 135 133 148 109 145 126 142 135
97 97 100 101 102 103 122 128 127 128 131 132 132 133 134 125 124 123 123 137 144 130 153 154 153 152 151 151 151 150 150 152 151 148 151 148 146 146 136 140 113 117 115
Wind_Direction
238 233 242 241 238 240 239 251 243 239 238 240 240 246 238 235 235 242 253 241 260 263 264 255 262 249 268 260 260 289 253 265 264 276 305 307 270 339 321 270 273 274 274
237 248 251 238 239 238 238 244 240 239 238 243 246 238 246 248 240 243 241 244 256 253 248 252 246 268 256 250 251 254 272 298 297 300 301 269 305 271 308 325 304 278 310
238 229 241 248 248 248 243 247 240 242 244 241 241 244 244 252 252 253 244 243 248 244 243 247 249 249 260 250 262 285 291 297 265 301 263 268 278 308 308 290 307 319 312
242 229 255 237 242 241 255 238 245 244 243 244 245 241 250 248 256 253 254 241 244 260 248 248 270 268 265 280 253 285 285 287 291 285 291 302 304 268 325 303 305 314 292
233 235 239 234 232 240 246 256 234 236 247 246 244 243 245 248 251 253 256 258 253 254 245 259 250 251 260 255 255 256 263 261 280 283 289 299 298 300 302 296 317 304 310
239 231 237 252 233 254 237 262 244 257 249 242 246 250 245 248 250 246 254 250 256 263 257 265 250 257 263 250 276 280 256 258 265 263 290 293 290 268 276 282 278 290 299
253 240 236 246 243 265 243 240 238 244 243 244 249 252 249 246 252 255 257 257 258 261 264 268 268 272 272 278 276 253 283 257 286 286 270 292 292 286 279 320 299 298 278
238 242 244 246 254 242 251 240 237 238 236 234 249 238 247 251 255 256 254 255 255 261 253 265 268 255 250 276 277 273 267 284 281 283 290 285 291 269 268 294 286 288 301
257 241 258 242 246 238 253 246 243 246 251 243 267 239 247 240 253 252 255 257 258 245 264 257 266 265 271 276 276 277 265 266 270 286 274 265 298 282 271 293 302 290 302
244 246 244 247 246 245 243 247 242 243 241 244 250 246 249 240 250 254 253 245 248 249 246 246 252 275 270 273 252 259 254 255 283 260 282 260 285 282 287 291 289 275 293
247 248 247 261 247 249 257 249 249 241 248 244 250 246 269 249 253 255 252 256 260 250 258 263 266 256 251 259 258 258 260 262 262 262 264 280 282 267 287 289 291 292 274
252 258 259 259 247 249 244 242 265 249 249 250 258 247 251 257 250 254 251 267 253 253 257 283 266 262 263 257 269 261 270 279 273 280 279 280 284 283 284 303 300 286 305
245 255 252 259 256 261 254 253 255 248 261 246 253 256 251 252 256 253 256 268 250 249 252 255 257 255 262 259 269 264 270 273 274 273 272 285 295 274 285 267 275 285 274
253 251 246 252 257 251 261 264 263 266 251 254 253 257 250 253 267 251 253 252 254 258 260 260 259 261 263 265 255 262 258 262 281 276 269 268 283 266 291 277 272 289 298
249 244 255 256 258 259 260 264 254 265 251 252 252 253 253 255 256 259 260 258 255 258 259 255 264 278 263 268 268 270 272 272 276 262 270 278 266 266 266 286 289 294 272
249 249 250 246 248 256 257 255 261 264 262 258 259 267 255 256 264 256 259 265 262 263 259 262 264 270 266 267 277 271 265 273 269 273 269 277 282 288 298 288 274 273 286
247 249 248 250 246 248 252 253 257 262 265 254 249 264 266 258 263 257 262 264 263 257 263 259 263 260 271 265 267 262 268 276 290 267 278 277 277 280 296 280 292 266 286
243 246 251 254 249 251 256 250 252 252 263 264 267 267 267 268 268 255 256 258 270 261 267 258 256 268 264 279 269 268 271 272 273 269 291 290 277 278 266 292 295 273 271
240 241 243 247 254 256 254 256 257 253 251 251 260 260 265 267 268 261 262 256 260 273 257 272 270 261 260 263 280 276 267 268 279 265 275 282 272 270 288 285 280 281 275
240 240 242 244 245 249 254 258 258 258 260 261 262 259 258 258 251 268 266 271 271 267 271 263 264 261 271 271 261 282 281 285 281 277 280 288 285 284 289 285 274 285 288
241 241 241 242 244 244 247 249 252 258 260 260 260 262 263 263 265 264 263 256 260 262 272 276 263 279 277 266 270 268 279 274 284 278 272 286 284 279 278 288 290 289 291
243 243 244 244 243 245 244 246 248 251 253 258 262 262 262 263 265 266 266 270 272 272 271 276 272 273 278 276 279 279 280 282 282 283 284 284 283 286 286 287 288 289 292
244 244 245 246 246 246 245 246 248 247 250 253 253 257 261 263 264 265 266 267 268 269 271 272 274 274 274 270 279 280 280 280 280 282 282 283 284 285 285 287 288 284 277
245 246 246 246 247 248 248 248 248 249 249 249 251 253 255 255 259 262 265 267 269 270 272 273 271 272 275 275 277 278 278 280 279 280 281 282 284 286 285 285 286 288 287
245 246 247 248 248 248 248 249 249 250 250 250 251 251 252 253 256 258 260 261 266 265 267 269 271 272 273 275 275 276 277 277 280 280 281 282 282 282 280 286 286 285 285
246 247 247 247 247 248 249 250 250 250 251 251 252 253 253 253 255 254 255 257 258 259 261 263 265 267 268 270 271 271 273 273 274 275 276 278 280 279 278 280 275 274 281